owner,sensor,date,latitude,longitude,vertical_datum,sea_water_practical_salinity,qcFlag 
DISL,ioos:station:DISL:DISL:1,2016-10-01T00:00:00Z,30.2513,-88.0778,2.092,21.64,1111122 
DISL,ioos:station:DISL:DISL:1,2016-10-01T00:30:00Z,30.2513,-88.0778,2.098,22.08,1111122 
DISL,ioos:station:DISL:DISL:1,2016-10-01T01:00:00Z,30.2513,-88.0778,2.122,23.55,1111122 
DISL,ioos:station:DISL:DISL:1,2016-10-01T01:30:00Z,30.2513,-88.0778,2.111,27.35,1111122 
DISL,ioos:station:DISL:DISL:1,2016-10-01T02:00:00Z,30.2513,-88.0778,2.122,26.91,1111122 
DISL,ioos:station:DISL:DISL:1,2016-10-01T02:30:00Z,30.2513,-88.0778,2.134,27.76,1111122 
DISL,ioos:station:DISL:DISL:1,2016-10-01T03:00:00Z,30.2513,-88.0778,2.142,26.81,1111122 
DISL,ioos:station:DISL:DISL:1,2016-10-01T03:30:00Z,30.2513,-88.0778,2.154,23.93,1111122 
DISL,ioos:station:DISL:DISL:1,2016-10-01T04:00:00Z,30.2513,-88.0778,2.147,23.68,1111122 
DISL,ioos:station:DISL:DISL:1,2016-10-01T04:30:00Z,30.2513,-88.0778,2.139,21.81,1111122 
DISL,ioos:station:DISL:DISL:1,2016-10-01T05:30:00Z,30.2513,-88.0778,2.123,21.98,1111122 
DISL,ioos:station:DISL:DISL:1,2016-10-01T06:00:00Z,30.2513,-88.0778,2.134,21.9,1111122 
DISL,ioos:station:DISL:DISL:1,2016-10-01T06:30:00Z,30.2513,-88.0778,2.132,21.98,1111122 
DISL,ioos:station:DISL:DISL:1,2016-10-01T07:00:00Z,30.2513,-88.0778,2.115,22.13,1111122 
DISL,ioos:station:DISL:DISL:1,2016-10-01T07:30:00Z,30.2513,-88.0778,2.093,22.19,1111122 
DISL,ioos:station:DISL:DISL:1,2016-10-01T08:00:00Z,30.2513,-88.0778,2.066,22.31,1111122 
DISL,ioos:station:DISL:DISL:1,2016-10-01T08:30:00Z,30.2513,-88.0778,2.047,22.66,1111122 
DISL,ioos:station:DISL:DISL:1,2016-10-01T09:00:00Z,30.2513,-88.0778,2.019,22.17,1111122 
DISL,ioos:station:DISL:DISL:1,2016-10-01T09:30:00Z,30.2513,-88.0778,2.006,22.42,1111122 
DISL,ioos:station:DISL:DISL:1,2016-10-01T10:00:00Z,30.2513,-88.0778,2.0,23.12,1111122 
DISL,ioos:station:DISL:DISL:1,2016-10-01T10:30:00Z,30.2513,-88.0778,1.995,22.89,1111122 
DISL,ioos:station:DISL:DISL:1,2016-10-01T11:00:00Z,30.2513,-88.0778,1.985,22.45,1111122 
DISL,ioos:station:DISL:DISL:1,2016-10-01T11:30:00Z,30.2513,-88.0778,1.984,22.49,1111122 
DISL,ioos:station:DISL:DISL:1,2016-10-01T12:00:00Z,30.2513,-88.0778,1.99,22.45,1111122 
DISL,ioos:station:DISL:DISL:1,2016-10-01T12:30:00Z,30.2513,-88.0778,2.0,22.22,1111122 
DISL,ioos:station:DISL:DISL:1,2016-10-01T13:00:00Z,30.2513,-88.0778,1.993,21.77,1111122 
DISL,ioos:station:DISL:DISL:1,2016-10-01T13:30:00Z,30.2513,-88.0778,1.988,23.07,1111122 
DISL,ioos:station:DISL:DISL:1,2016-10-01T14:00:00Z,30.2513,-88.0778,2.0,22.89,1111122 
DISL,ioos:station:DISL:DISL:1,2016-10-01T14:30:00Z,30.2513,-88.0778,2.005,22.31,1111122 
DISL,ioos:station:DISL:DISL:1,2016-10-01T15:00:00Z,30.2513,-88.0778,2.015,21.98,1111122 
DISL,ioos:station:DISL:DISL:1,2016-10-01T15:30:00Z,30.2513,-88.0778,2.009,21.65,1111122 
DISL,ioos:station:DISL:DISL:1,2016-10-01T16:00:00Z,30.2513,-88.0778,2.021,22.19,1111122 
DISL,ioos:station:DISL:DISL:1,2016-10-01T16:30:00Z,30.2513,-88.0778,2.028,22.94,1111122 
DISL,ioos:station:DISL:DISL:1,2016-10-01T17:00:00Z,30.2513,-88.0778,2.03,22.79,1111122 
DISL,ioos:station:DISL:DISL:1,2016-10-01T17:30:00Z,30.2513,-88.0778,2.04,23.46,1111122 
DISL,ioos:station:DISL:DISL:1,2016-10-01T18:00:00Z,30.2513,-88.0778,2.036,23.04,1111122 
DISL,ioos:station:DISL:DISL:1,2016-10-01T18:30:00Z,30.2513,-88.0778,2.055,23.4,1111122 
DISL,ioos:station:DISL:DISL:1,2016-10-01T19:00:00Z,30.2513,-88.0778,2.066,23.31,1111122 
DISL,ioos:station:DISL:DISL:1,2016-10-01T19:30:00Z,30.2513,-88.0778,2.053,22.94,1111122 
DISL,ioos:station:DISL:DISL:1,2016-10-01T20:00:00Z,30.2513,-88.0778,2.056,22.13,1111122 
DISL,ioos:station:DISL:DISL:1,2016-10-01T20:30:00Z,30.2513,-88.0778,2.076,21.76,1111122 
DISL,ioos:station:DISL:DISL:1,2016-10-01T21:00:00Z,30.2513,-88.0778,2.048,21.79,1111122 
DISL,ioos:station:DISL:DISL:1,2016-10-01T21:30:00Z,30.2513,-88.0778,2.043,21.69,1111122 
DISL,ioos:station:DISL:DISL:1,2016-10-01T22:00:00Z,30.2513,-88.0778,2.063,22.23,1111122 
DISL,ioos:station:DISL:DISL:1,2016-10-01T22:30:00Z,30.2513,-88.0778,2.051,22.15,1111122 
DISL,ioos:station:DISL:DISL:1,2016-10-01T23:00:00Z,30.2513,-88.0778,2.065,22.19,1111122 
DISL,ioos:station:DISL:DISL:1,2016-10-01T23:30:00Z,30.2513,-88.0778,2.073,22.5,1111122 
DISL,ioos:station:DISL:DISL:1,2016-10-02T00:00:00Z,30.2513,-88.0778,2.083,22.29,1111122 
DISL,ioos:station:DISL:DISL:1,2016-10-02T00:30:00Z,30.2513,-88.0778,2.097,24.49,1111122 
DISL,ioos:station:DISL:DISL:1,2016-10-02T01:00:00Z,30.2513,-88.0778,2.102,25.71,1111122 
DISL,ioos:station:DISL:DISL:1,2016-10-02T01:30:00Z,30.2513,-88.0778,2.105,26.3,1111122 
DISL,ioos:station:DISL:DISL:1,2016-10-02T02:00:00Z,30.2513,-88.0778,2.115,26.37,1111122 
DISL,ioos:station:DISL:DISL:1,2016-10-02T02:30:00Z,30.2513,-88.0778,2.121,25.8,1111122 
DISL,ioos:station:DISL:DISL:1,2016-10-02T03:00:00Z,30.2513,-88.0778,2.136,24.1,1111122 
DISL,ioos:station:DISL:DISL:1,2016-10-02T03:30:00Z,30.2513,-88.0778,2.142,23.43,1111122 
DISL,ioos:station:DISL:DISL:1,2016-10-02T04:00:00Z,30.2513,-88.0778,2.137,23.84,1111122 
DISL,ioos:station:DISL:DISL:1,2016-10-02T04:30:00Z,30.2513,-88.0778,2.13,24.22,1111122 
DISL,ioos:station:DISL:DISL:1,2016-10-02T05:30:00Z,30.2513,-88.0778,2.146,22.62,1111122 
DISL,ioos:station:DISL:DISL:1,2016-10-02T06:00:00Z,30.2513,-88.0778,2.13,22.05,1111122 
DISL,ioos:station:DISL:DISL:1,2016-10-02T06:30:00Z,30.2513,-88.0778,2.13,22.45,1111122 
DISL,ioos:station:DISL:DISL:1,2016-10-02T07:00:00Z,30.2513,-88.0778,2.123,22.59,1111122 
DISL,ioos:station:DISL:DISL:1,2016-10-02T07:30:00Z,30.2513,-88.0778,2.087,22.43,1111122 
DISL,ioos:station:DISL:DISL:1,2016-10-02T08:00:00Z,30.2513,-88.0778,2.072,22.51,1111122 
DISL,ioos:station:DISL:DISL:1,2016-10-02T08:30:00Z,30.2513,-88.0778,2.059,22.43,1111122 
DISL,ioos:station:DISL:DISL:1,2016-10-02T09:00:00Z,30.2513,-88.0778,2.03,22.45,1111122 
DISL,ioos:station:DISL:DISL:1,2016-10-02T09:30:00Z,30.2513,-88.0778,2.01,22.47,1111122 
DISL,ioos:station:DISL:DISL:1,2016-10-02T10:00:00Z,30.2513,-88.0778,1.996,22.48,1111122 
DISL,ioos:station:DISL:DISL:1,2016-10-02T10:30:00Z,30.2513,-88.0778,1.966,22.4,1111122 
DISL,ioos:station:DISL:DISL:1,2016-10-02T11:00:00Z,30.2513,-88.0778,1.982,22.19,1111122 
DISL,ioos:station:DISL:DISL:1,2016-10-02T11:30:00Z,30.2513,-88.0778,1.966,22.55,1111122 
DISL,ioos:station:DISL:DISL:1,2016-10-02T12:00:00Z,30.2513,-88.0778,1.983,22.31,1111122 
DISL,ioos:station:DISL:DISL:1,2016-10-02T12:30:00Z,30.2513,-88.0778,1.977,22.2,1111122 
DISL,ioos:station:DISL:DISL:1,2016-10-02T13:00:00Z,30.2513,-88.0778,1.981,22.29,1111122 
DISL,ioos:station:DISL:DISL:1,2016-10-02T13:30:00Z,30.2513,-88.0778,1.959,22.28,1111122 
DISL,ioos:station:DISL:DISL:1,2016-10-02T14:00:00Z,30.2513,-88.0778,1.979,22.16,1111122 
DISL,ioos:station:DISL:DISL:1,2016-10-02T14:30:00Z,30.2513,-88.0778,1.985,22.25,1111122 
DISL,ioos:station:DISL:DISL:1,2016-10-02T15:00:00Z,30.2513,-88.0778,1.992,22.2,1111122 
DISL,ioos:station:DISL:DISL:1,2016-10-02T15:30:00Z,30.2513,-88.0778,1.963,22.26,1111122 
DISL,ioos:station:DISL:DISL:1,2016-10-02T16:00:00Z,30.2513,-88.0778,1.992,22.1,1111122 
DISL,ioos:station:DISL:DISL:1,2016-10-02T16:30:00Z,30.2513,-88.0778,1.99,22.4,1111122 
DISL,ioos:station:DISL:DISL:1,2016-10-02T17:00:00Z,30.2513,-88.0778,2.002,24.09,1111122 
DISL,ioos:station:DISL:DISL:1,2016-10-02T17:30:00Z,30.2513,-88.0778,2.018,24.68,1111122 
DISL,ioos:station:DISL:DISL:1,2016-10-02T18:00:00Z,30.2513,-88.0778,2.004,24.92,1111122 
DISL,ioos:station:DISL:DISL:1,2016-10-02T18:30:00Z,30.2513,-88.0778,2.018,25.25,1111122 
DISL,ioos:station:DISL:DISL:1,2016-10-02T19:00:00Z,30.2513,-88.0778,2.035,24.49,1111122 
DISL,ioos:station:DISL:DISL:1,2016-10-02T19:30:00Z,30.2513,-88.0778,2.049,24.38,1111122 
DISL,ioos:station:DISL:DISL:1,2016-10-02T20:00:00Z,30.2513,-88.0778,2.046,23.46,1111122 
DISL,ioos:station:DISL:DISL:1,2016-10-02T20:30:00Z,30.2513,-88.0778,2.088,22.48,1111122 
DISL,ioos:station:DISL:DISL:1,2016-10-02T21:00:00Z,30.2513,-88.0778,2.078,21.82,1111122 
DISL,ioos:station:DISL:DISL:1,2016-10-02T21:30:00Z,30.2513,-88.0778,2.08,21.9,1111122 
DISL,ioos:station:DISL:DISL:1,2016-10-02T22:00:00Z,30.2513,-88.0778,2.075,22.06,1111122 
DISL,ioos:station:DISL:DISL:1,2016-10-02T22:30:00Z,30.2513,-88.0778,2.09,21.61,1111122 
DISL,ioos:station:DISL:DISL:1,2016-10-02T23:00:00Z,30.2513,-88.0778,2.124,21.68,1111122 
DISL,ioos:station:DISL:DISL:1,2016-10-02T23:30:00Z,30.2513,-88.0778,2.101,21.74,1111122 
DISL,ioos:station:DISL:DISL:1,2016-10-03T00:00:00Z,30.2513,-88.0778,2.106,22.29,1111122 
DISL,ioos:station:DISL:DISL:1,2016-10-03T00:30:00Z,30.2513,-88.0778,2.131,22.93,1111122 
DISL,ioos:station:DISL:DISL:1,2016-10-03T01:00:00Z,30.2513,-88.0778,2.128,25.5,1111122 
DISL,ioos:station:DISL:DISL:1,2016-10-03T01:30:00Z,30.2513,-88.0778,2.139,26.83,1111122 
DISL,ioos:station:DISL:DISL:1,2016-10-03T02:00:00Z,30.2513,-88.0778,2.16,27.14,1111122 
DISL,ioos:station:DISL:DISL:1,2016-10-03T02:30:00Z,30.2513,-88.0778,2.164,27.54,1111122 
DISL,ioos:station:DISL:DISL:1,2016-10-03T03:00:00Z,30.2513,-88.0778,2.176,27.87,1111122 
DISL,ioos:station:DISL:DISL:1,2016-10-03T03:30:00Z,30.2513,-88.0778,2.168,28.65,1111122 
DISL,ioos:station:DISL:DISL:1,2016-10-03T04:00:00Z,30.2513,-88.0778,2.16,28.1,1111122 
DISL,ioos:station:DISL:DISL:1,2016-10-03T04:30:00Z,30.2513,-88.0778,2.157,28.24,1111122 
DISL,ioos:station:DISL:DISL:1,2016-10-03T05:30:00Z,30.2513,-88.0778,2.175,25.1,1111122 
DISL,ioos:station:DISL:DISL:1,2016-10-03T06:00:00Z,30.2513,-88.0778,2.172,23.8,1111122 
DISL,ioos:station:DISL:DISL:1,2016-10-03T06:30:00Z,30.2513,-88.0778,2.165,23.71,1111122 
DISL,ioos:station:DISL:DISL:1,2016-10-03T07:00:00Z,30.2513,-88.0778,2.154,23.32,1111122 
DISL,ioos:station:DISL:DISL:1,2016-10-03T07:30:00Z,30.2513,-88.0778,2.138,23.2,1111122 
DISL,ioos:station:DISL:DISL:1,2016-10-03T08:00:00Z,30.2513,-88.0778,2.142,23.05,1111122 
DISL,ioos:station:DISL:DISL:1,2016-10-03T08:30:00Z,30.2513,-88.0778,2.115,23.04,1111122 
DISL,ioos:station:DISL:DISL:1,2016-10-03T09:00:00Z,30.2513,-88.0778,2.089,22.95,1111122 
DISL,ioos:station:DISL:DISL:1,2016-10-03T09:30:00Z,30.2513,-88.0778,2.069,22.98,1111122 
DISL,ioos:station:DISL:DISL:1,2016-10-03T10:00:00Z,30.2513,-88.0778,2.052,23.02,1111122 
DISL,ioos:station:DISL:DISL:1,2016-10-03T10:30:00Z,30.2513,-88.0778,2.03,22.86,1111122 
DISL,ioos:station:DISL:DISL:1,2016-10-03T11:00:00Z,30.2513,-88.0778,2.037,22.36,1111122 
DISL,ioos:station:DISL:DISL:1,2016-10-03T11:30:00Z,30.2513,-88.0778,2.016,22.36,1111122 
DISL,ioos:station:DISL:DISL:1,2016-10-03T12:00:00Z,30.2513,-88.0778,1.993,22.1,1111122 
DISL,ioos:station:DISL:DISL:1,2016-10-03T12:30:00Z,30.2513,-88.0778,1.99,22.27,1111122 
DISL,ioos:station:DISL:DISL:1,2016-10-03T13:00:00Z,30.2513,-88.0778,1.988,22.12,1111122 
DISL,ioos:station:DISL:DISL:1,2016-10-03T13:30:00Z,30.2513,-88.0778,1.988,22.18,1111122 
DISL,ioos:station:DISL:DISL:1,2016-10-03T14:00:00Z,30.2513,-88.0778,1.986,22.28,1111122 
DISL,ioos:station:DISL:DISL:1,2016-10-03T14:30:00Z,30.2513,-88.0778,1.983,22.23,1111122 
DISL,ioos:station:DISL:DISL:1,2016-10-03T15:00:00Z,30.2513,-88.0778,1.983,22.21,1111122 
DISL,ioos:station:DISL:DISL:1,2016-10-03T15:30:00Z,30.2513,-88.0778,1.984,22.63,1111122 
DISL,ioos:station:DISL:DISL:1,2016-10-03T16:00:00Z,30.2513,-88.0778,1.986,23.06,1111122 
DISL,ioos:station:DISL:DISL:1,2016-10-03T16:30:00Z,30.2513,-88.0778,1.992,23.2,1111122 
DISL,ioos:station:DISL:DISL:1,2016-10-03T17:00:00Z,30.2513,-88.0778,1.983,24.38,1111122 
DISL,ioos:station:DISL:DISL:1,2016-10-03T17:30:00Z,30.2513,-88.0778,1.986,24.85,1111122 
DISL,ioos:station:DISL:DISL:1,2016-10-03T18:00:00Z,30.2513,-88.0778,2.009,23.93,1111122 
DISL,ioos:station:DISL:DISL:1,2016-10-03T18:30:00Z,30.2513,-88.0778,2.032,25.06,1111122 
DISL,ioos:station:DISL:DISL:1,2016-10-03T19:00:00Z,30.2513,-88.0778,2.046,24.89,1111122 
DISL,ioos:station:DISL:DISL:1,2016-10-03T19:30:00Z,30.2513,-88.0778,2.066,23.99,1111122 
DISL,ioos:station:DISL:DISL:1,2016-10-03T20:00:00Z,30.2513,-88.0778,2.072,24.1,1111122 
DISL,ioos:station:DISL:DISL:1,2016-10-03T20:30:00Z,30.2513,-88.0778,2.106,23.14,1111122 
DISL,ioos:station:DISL:DISL:1,2016-10-03T21:00:00Z,30.2513,-88.0778,2.106,22.16,1111122 
DISL,ioos:station:DISL:DISL:1,2016-10-03T21:30:00Z,30.2513,-88.0778,2.119,21.82,1111122 
DISL,ioos:station:DISL:DISL:1,2016-10-03T22:00:00Z,30.2513,-88.0778,2.131,21.82,1111122 
DISL,ioos:station:DISL:DISL:1,2016-10-03T22:30:00Z,30.2513,-88.0778,2.156,21.8,1111122 
DISL,ioos:station:DISL:DISL:1,2016-10-03T23:00:00Z,30.2513,-88.0778,2.159,24.76,1111122 
DISL,ioos:station:DISL:DISL:1,2016-10-03T23:30:00Z,30.2513,-88.0778,2.157,27.31,1111122 
DISL,ioos:station:DISL:DISL:1,2016-10-04T00:00:00Z,30.2513,-88.0778,2.186,26.7,1111122 
DISL,ioos:station:DISL:DISL:1,2016-10-04T00:30:00Z,30.2513,-88.0778,2.195,27.76,1111122 
DISL,ioos:station:DISL:DISL:1,2016-10-04T01:00:00Z,30.2513,-88.0778,2.211,27.77,1111122 
DISL,ioos:station:DISL:DISL:1,2016-10-04T01:30:00Z,30.2513,-88.0778,2.225,27.6,1111122 
DISL,ioos:station:DISL:DISL:1,2016-10-04T02:00:00Z,30.2513,-88.0778,2.243,27.57,1111122 
DISL,ioos:station:DISL:DISL:1,2016-10-04T02:30:00Z,30.2513,-88.0778,2.27,27.54,1111122 
DISL,ioos:station:DISL:DISL:1,2016-10-04T03:00:00Z,30.2513,-88.0778,2.275,28.14,1111122 
DISL,ioos:station:DISL:DISL:1,2016-10-04T03:30:00Z,30.2513,-88.0778,2.293,27.36,1111122 
DISL,ioos:station:DISL:DISL:1,2016-10-04T04:00:00Z,30.2513,-88.0778,2.305,27.45,1111122 
DISL,ioos:station:DISL:DISL:1,2016-10-04T04:30:00Z,30.2513,-88.0778,2.3,28.44,1111122 
DISL,ioos:station:DISL:DISL:1,2016-10-04T05:30:00Z,30.2513,-88.0778,2.289,24.26,1111122 
DISL,ioos:station:DISL:DISL:1,2016-10-04T06:00:00Z,30.2513,-88.0778,2.279,22.12,1111122 
DISL,ioos:station:DISL:DISL:1,2016-10-04T06:30:00Z,30.2513,-88.0778,2.272,22.49,1111122 
DISL,ioos:station:DISL:DISL:1,2016-10-04T07:00:00Z,30.2513,-88.0778,2.26,22.32,1111122 
DISL,ioos:station:DISL:DISL:1,2016-10-04T07:30:00Z,30.2513,-88.0778,2.244,22.56,1111122 
DISL,ioos:station:DISL:DISL:1,2016-10-04T08:00:00Z,30.2513,-88.0778,2.233,21.73,1111122 
DISL,ioos:station:DISL:DISL:1,2016-10-04T08:30:00Z,30.2513,-88.0778,2.21,22.09,1111122 
DISL,ioos:station:DISL:DISL:1,2016-10-04T09:00:00Z,30.2513,-88.0778,2.185,21.8,1111122 
DISL,ioos:station:DISL:DISL:1,2016-10-04T09:30:00Z,30.2513,-88.0778,2.139,22.06,1111122 
DISL,ioos:station:DISL:DISL:1,2016-10-04T10:00:00Z,30.2513,-88.0778,2.141,21.45,1111122 
DISL,ioos:station:DISL:DISL:1,2016-10-04T10:30:00Z,30.2513,-88.0778,2.111,22.81,1111122 
DISL,ioos:station:DISL:DISL:1,2016-10-04T11:00:00Z,30.2513,-88.0778,2.093,22.55,1111122 
DISL,ioos:station:DISL:DISL:1,2016-10-04T11:30:00Z,30.2513,-88.0778,2.075,22.78,1111122 
DISL,ioos:station:DISL:DISL:1,2016-10-04T12:00:00Z,30.2513,-88.0778,2.05,22.45,1111122 
DISL,ioos:station:DISL:DISL:1,2016-10-04T12:30:00Z,30.2513,-88.0778,2.038,22.67,1111122 
DISL,ioos:station:DISL:DISL:1,2016-10-04T13:00:00Z,30.2513,-88.0778,2.038,22.53,1111122 
DISL,ioos:station:DISL:DISL:1,2016-10-04T13:30:00Z,30.2513,-88.0778,2.031,22.54,1111122 
DISL,ioos:station:DISL:DISL:1,2016-10-04T14:00:00Z,30.2513,-88.0778,2.037,22.22,1111122 
DISL,ioos:station:DISL:DISL:1,2016-10-04T14:30:00Z,30.2513,-88.0778,1.993,22.39,1111122 
DISL,ioos:station:DISL:DISL:1,2016-10-04T15:00:00Z,30.2513,-88.0778,1.992,22.26,1111122 
DISL,ioos:station:DISL:DISL:1,2016-10-04T15:30:00Z,30.2513,-88.0778,2.005,21.8,1111122 
DISL,ioos:station:DISL:DISL:1,2016-10-04T16:00:00Z,30.2513,-88.0778,2.008,22.38,1111122 
DISL,ioos:station:DISL:DISL:1,2016-10-04T16:30:00Z,30.2513,-88.0778,2.018,22.64,1111122 
DISL,ioos:station:DISL:DISL:1,2016-10-04T17:00:00Z,30.2513,-88.0778,2.013,22.31,1111122 
DISL,ioos:station:DISL:DISL:1,2016-10-04T17:30:00Z,30.2513,-88.0778,2.011,24.13,1111122 
DISL,ioos:station:DISL:DISL:1,2016-10-04T18:00:00Z,30.2513,-88.0778,2.018,25.16,1111122 
DISL,ioos:station:DISL:DISL:1,2016-10-04T18:30:00Z,30.2513,-88.0778,2.026,25.06,1111122 
DISL,ioos:station:DISL:DISL:1,2016-10-04T19:00:00Z,30.2513,-88.0778,2.031,24.96,1111122 
DISL,ioos:station:DISL:DISL:1,2016-10-04T19:30:00Z,30.2513,-88.0778,2.045,24.32,1111122 
DISL,ioos:station:DISL:DISL:1,2016-10-04T20:00:00Z,30.2513,-88.0778,2.05,24.19,1111122 
DISL,ioos:station:DISL:DISL:1,2016-10-04T20:30:00Z,30.2513,-88.0778,2.113,24.41,1111122 
DISL,ioos:station:DISL:DISL:1,2016-10-04T21:00:00Z,30.2513,-88.0778,2.091,24.1,1111122 
DISL,ioos:station:DISL:DISL:1,2016-10-04T21:30:00Z,30.2513,-88.0778,2.103,23.44,1111122 
DISL,ioos:station:DISL:DISL:1,2016-10-04T22:00:00Z,30.2513,-88.0778,2.128,23.83,1111122 
DISL,ioos:station:DISL:DISL:1,2016-10-04T22:30:00Z,30.2513,-88.0778,2.152,24.35,1111122 
DISL,ioos:station:DISL:DISL:1,2016-10-04T23:00:00Z,30.2513,-88.0778,2.175,25.67,1111122 
DISL,ioos:station:DISL:DISL:1,2016-10-04T23:30:00Z,30.2513,-88.0778,2.185,27.25,1111122 
DISL,ioos:station:DISL:DISL:1,2016-10-05T00:00:00Z,30.2513,-88.0778,2.199,26.79,1111122 
DISL,ioos:station:DISL:DISL:1,2016-10-05T00:30:00Z,30.2513,-88.0778,2.226,26.2,1111122 
DISL,ioos:station:DISL:DISL:1,2016-10-05T01:00:00Z,30.2513,-88.0778,2.257,25.86,1111122 
DISL,ioos:station:DISL:DISL:1,2016-10-05T01:30:00Z,30.2513,-88.0778,2.273,27.47,1111122 
DISL,ioos:station:DISL:DISL:1,2016-10-05T02:00:00Z,30.2513,-88.0778,2.285,27.11,1111122 
DISL,ioos:station:DISL:DISL:1,2016-10-05T02:30:00Z,30.2513,-88.0778,2.304,27.35,1111122 
DISL,ioos:station:DISL:DISL:1,2016-10-05T03:00:00Z,30.2513,-88.0778,2.328,27.76,1111122 
DISL,ioos:station:DISL:DISL:1,2016-10-05T03:30:00Z,30.2513,-88.0778,2.334,27.94,1111122 
DISL,ioos:station:DISL:DISL:1,2016-10-05T04:00:00Z,30.2513,-88.0778,2.348,27.06,1111122 
DISL,ioos:station:DISL:DISL:1,2016-10-05T04:30:00Z,30.2513,-88.0778,2.366,27.16,1111122 
DISL,ioos:station:DISL:DISL:1,2016-10-05T05:30:00Z,30.2513,-88.0778,2.357,24.48,1111122 
DISL,ioos:station:DISL:DISL:1,2016-10-05T06:00:00Z,30.2513,-88.0778,2.348,22.78,1111122 
DISL,ioos:station:DISL:DISL:1,2016-10-05T06:30:00Z,30.2513,-88.0778,2.347,22.16,1111122 
DISL,ioos:station:DISL:DISL:1,2016-10-05T07:00:00Z,30.2513,-88.0778,2.331,22.74,1111122 
DISL,ioos:station:DISL:DISL:1,2016-10-05T07:30:00Z,30.2513,-88.0778,2.311,22.23,1111122 
DISL,ioos:station:DISL:DISL:1,2016-10-05T08:00:00Z,30.2513,-88.0778,2.32,22.82,1111122 
DISL,ioos:station:DISL:DISL:1,2016-10-05T08:30:00Z,30.2513,-88.0778,2.302,22.56,1111122 
DISL,ioos:station:DISL:DISL:1,2016-10-05T09:00:00Z,30.2513,-88.0778,2.281,22.39,1111122 
DISL,ioos:station:DISL:DISL:1,2016-10-05T09:30:00Z,30.2513,-88.0778,2.251,22.19,1111122 
DISL,ioos:station:DISL:DISL:1,2016-10-05T10:00:00Z,30.2513,-88.0778,2.224,22.23,1111122 
DISL,ioos:station:DISL:DISL:1,2016-10-05T10:30:00Z,30.2513,-88.0778,2.225,22.55,1111122 
DISL,ioos:station:DISL:DISL:1,2016-10-05T11:00:00Z,30.2513,-88.0778,2.253,22.33,1111122 
DISL,ioos:station:DISL:DISL:1,2016-10-05T11:30:00Z,30.2513,-88.0778,2.169,22.53,1111122 
DISL,ioos:station:DISL:DISL:1,2016-10-05T12:00:00Z,30.2513,-88.0778,2.144,22.65,1111122 
DISL,ioos:station:DISL:DISL:1,2016-10-05T12:30:00Z,30.2513,-88.0778,2.2,22.62,1111122 
DISL,ioos:station:DISL:DISL:1,2016-10-05T13:00:00Z,30.2513,-88.0778,2.119,22.28,1111122 
DISL,ioos:station:DISL:DISL:1,2016-10-05T13:30:00Z,30.2513,-88.0778,2.094,21.95,1111122 
DISL,ioos:station:DISL:DISL:1,2016-10-05T14:00:00Z,30.2513,-88.0778,2.023,22.21,1111122 
DISL,ioos:station:DISL:DISL:1,2016-10-05T14:30:00Z,30.2513,-88.0778,2.066,22.59,1111122 
DISL,ioos:station:DISL:DISL:1,2016-10-05T15:00:00Z,30.2513,-88.0778,2.001,22.59,1111122 
DISL,ioos:station:DISL:DISL:1,2016-10-05T15:30:00Z,30.2513,-88.0778,2.006,22.14,1111122 
DISL,ioos:station:DISL:DISL:1,2016-10-05T16:00:00Z,30.2513,-88.0778,2.017,22.06,1111122 
DISL,ioos:station:DISL:DISL:1,2016-10-05T16:30:00Z,30.2513,-88.0778,2.012,23.25,1111122 
DISL,ioos:station:DISL:DISL:1,2016-10-05T17:00:00Z,30.2513,-88.0778,2.008,23.88,1111122 
DISL,ioos:station:DISL:DISL:1,2016-10-05T17:30:00Z,30.2513,-88.0778,2.004,23.7,1111122 
DISL,ioos:station:DISL:DISL:1,2016-10-05T18:00:00Z,30.2513,-88.0778,2.007,24.39,1111122 
DISL,ioos:station:DISL:DISL:1,2016-10-05T18:30:00Z,30.2513,-88.0778,2.017,24.75,1111122 
DISL,ioos:station:DISL:DISL:1,2016-10-05T19:00:00Z,30.2513,-88.0778,2.026,24.8,1111122 
DISL,ioos:station:DISL:DISL:1,2016-10-05T19:30:00Z,30.2513,-88.0778,2.043,24.7,1111122 
DISL,ioos:station:DISL:DISL:1,2016-10-05T20:00:00Z,30.2513,-88.0778,2.064,23.3,1111122 
DISL,ioos:station:DISL:DISL:1,2016-10-05T20:30:00Z,30.2513,-88.0778,2.075,23.32,1111122 
DISL,ioos:station:DISL:DISL:1,2016-10-05T21:00:00Z,30.2513,-88.0778,2.092,23.27,1111122 
DISL,ioos:station:DISL:DISL:1,2016-10-05T21:30:00Z,30.2513,-88.0778,2.112,24.72,1111122 
DISL,ioos:station:DISL:DISL:1,2016-10-05T22:00:00Z,30.2513,-88.0778,2.132,23.62,1111122 
DISL,ioos:station:DISL:DISL:1,2016-10-05T22:30:00Z,30.2513,-88.0778,2.141,24.05,1111122 
DISL,ioos:station:DISL:DISL:1,2016-10-05T23:00:00Z,30.2513,-88.0778,2.166,24.05,1111122 
DISL,ioos:station:DISL:DISL:1,2016-10-05T23:30:00Z,30.2513,-88.0778,2.181,24.8,1111122 
DISL,ioos:station:DISL:DISL:1,2016-10-06T00:00:00Z,30.2513,-88.0778,2.205,25.86,1111122 
DISL,ioos:station:DISL:DISL:1,2016-10-06T00:30:00Z,30.2513,-88.0778,2.221,26.69,1111122 
DISL,ioos:station:DISL:DISL:1,2016-10-06T01:00:00Z,30.2513,-88.0778,2.245,27.52,1111122 
DISL,ioos:station:DISL:DISL:1,2016-10-06T01:30:00Z,30.2513,-88.0778,2.286,27.77,1111122 
DISL,ioos:station:DISL:DISL:1,2016-10-06T02:00:00Z,30.2513,-88.0778,2.286,27.79,1111122 
DISL,ioos:station:DISL:DISL:1,2016-10-06T02:30:00Z,30.2513,-88.0778,2.303,26.71,1111122 
DISL,ioos:station:DISL:DISL:1,2016-10-06T03:00:00Z,30.2513,-88.0778,2.312,26.49,1111122 
DISL,ioos:station:DISL:DISL:1,2016-10-06T03:30:00Z,30.2513,-88.0778,2.321,27.23,1111122 
DISL,ioos:station:DISL:DISL:1,2016-10-06T04:00:00Z,30.2513,-88.0778,2.337,27.83,1111122 
DISL,ioos:station:DISL:DISL:1,2016-10-06T04:30:00Z,30.2513,-88.0778,2.33,27.69,1111122 
DISL,ioos:station:DISL:DISL:1,2016-10-06T05:30:00Z,30.2513,-88.0778,2.42,24.87,1111122 
DISL,ioos:station:DISL:DISL:1,2016-10-06T06:00:00Z,30.2513,-88.0778,2.349,22.73,1111122 
DISL,ioos:station:DISL:DISL:1,2016-10-06T06:30:00Z,30.2513,-88.0778,2.355,24.89,1111122 
DISL,ioos:station:DISL:DISL:1,2016-10-06T07:00:00Z,30.2513,-88.0778,2.353,23.73,1111122 
DISL,ioos:station:DISL:DISL:1,2016-10-06T07:30:00Z,30.2513,-88.0778,2.415,23.9,1111122 
DISL,ioos:station:DISL:DISL:1,2016-10-06T08:00:00Z,30.2513,-88.0778,2.261,24.54,1111122 
DISL,ioos:station:DISL:DISL:1,2016-10-06T08:30:00Z,30.2513,-88.0778,2.345,24.85,1111122 
DISL,ioos:station:DISL:DISL:1,2016-10-06T09:00:00Z,30.2513,-88.0778,2.348,23.81,1111122 
DISL,ioos:station:DISL:DISL:1,2016-10-06T09:30:00Z,30.2513,-88.0778,2.321,23.38,1111122 
DISL,ioos:station:DISL:DISL:1,2016-10-06T10:00:00Z,30.2513,-88.0778,2.35,23.06,1111122 
DISL,ioos:station:DISL:DISL:1,2016-10-06T10:30:00Z,30.2513,-88.0778,2.298,23.41,1111122 
DISL,ioos:station:DISL:DISL:1,2016-10-06T11:00:00Z,30.2513,-88.0778,2.258,23.84,1111122 
DISL,ioos:station:DISL:DISL:1,2016-10-06T11:30:00Z,30.2513,-88.0778,2.202,24.03,1111122 
DISL,ioos:station:DISL:DISL:1,2016-10-06T12:00:00Z,30.2513,-88.0778,2.255,23.75,1111122 
DISL,ioos:station:DISL:DISL:1,2016-10-06T12:30:00Z,30.2513,-88.0778,2.221,23.73,1111122 
DISL,ioos:station:DISL:DISL:1,2016-10-06T13:00:00Z,30.2513,-88.0778,2.2,23.4,1111122 
DISL,ioos:station:DISL:DISL:1,2016-10-06T13:30:00Z,30.2513,-88.0778,2.171,23.54,1111122 
DISL,ioos:station:DISL:DISL:1,2016-10-06T14:00:00Z,30.2513,-88.0778,2.155,23.58,1111122 
DISL,ioos:station:DISL:DISL:1,2016-10-06T14:30:00Z,30.2513,-88.0778,2.136,23.47,1111122 
DISL,ioos:station:DISL:DISL:1,2016-10-06T15:00:00Z,30.2513,-88.0778,2.132,22.53,1111122 
DISL,ioos:station:DISL:DISL:1,2016-10-06T15:30:00Z,30.2513,-88.0778,2.107,23.65,1111122 
DISL,ioos:station:DISL:DISL:1,2016-10-06T16:00:00Z,30.2513,-88.0778,2.078,23.67,1111122 
DISL,ioos:station:DISL:DISL:1,2016-10-06T16:30:00Z,30.2513,-88.0778,2.079,22.47,1111122 
DISL,ioos:station:DISL:DISL:1,2016-10-06T17:00:00Z,30.2513,-88.0778,2.059,23.16,1111122 